Regional Weather Roundup
Issued by NWS

Home | Current Version | Previous Version | Text Only | Print | Product List | Glossary On
Versions: 1 2 3 4 5 6 7 8 9 10 11 12 13 14 15 16 17 18 19 20 21 22 23 24 25 26 27 28 29 30 31 32 33 34 35 36 37 38 39 40 41 42 43 44 45 46 47 48 49 50
000
ASUS44 KLIX 080711
RWRLA
LOUISIANA WEATHER ROUNDUP
NATIONAL WEATHER SERVICE NEW ORLEANS LA
200 AM CDT WED JUL 08 2015

NOTE: "FAIR" INDICATES FEW OR NO CLOUDS BELOW 12,000 FEET WITH NO
      SIGNIFICANT WEATHER AND/OR OBSTRUCTIONS TO VISIBILITY.
      SKY/WX - SKY CONDITION AND SIGNIFICANT WEATHER.
      TMP - AIR TEMPERATURE.    DP   - DEWPOINT TEMPERATURE.
      RH  - RELATIVE HUMIDITY.  PRES - PRESSURE.
      HX  - HEAT INDEX.         WCI  - WIND CHILL INDEX.

*  THESE STATIONS ARE NOT NWS OR FAA STATIONS AND ARE NOT UNDER
   NWS QUALITY CONTROL.

LAZ040-048-061>063-065-066-069-080800-
SOUTHEAST LOUISIANA

CITY           SKY/WX    TMP DP  RH WIND       PRES   REMARKS
N.O. AUDUBON     N/A     81  78  91 MISG        N/A
N.O. INTL ARPT PTCLDY    81  75  82 S8        30.10F
N.O. LAKEFRONT PTCLDY    84  75  74 S9        30.10F
N.O. DOWNTOWN* FAIR      84  73  70 S7        30.11S
RESERVE*       NOT AVBL
SLIDELL        CLEAR     81  77  88 CALM      30.10F
BATON ROUGE    CLEAR     76  73  91 E3        30.10F
BOOTHVILLE     CLEAR     81  76  84 SE5       30.11F
BELLE CHASSE   CLEAR     80  75  84 S6        30.10F
BOGALUSA*        N/A     78  73  85 CALM      30.13F
GALLIANO*      MOSUNNY   82  75  79 S5        30.11F
NEW ROADS*     FAIR     N/A N/A N/A CALM      30.10S
GONZALES*      FAIR      77  77 100 CALM      30.10S
HAMMOND*       CLEAR     75  72  88 CALM      30.13S
HOUMA*         CLEAR     82  77  84 S6        30.10S
PORT FOURCHON* PTSUNNY   84  75  74 SE10      30.11F

$$

LAZ041-044-053-054-080800-
SOUTHWEST LOUISIANA

CITY           SKY/WX    TMP DP  RH WIND       PRES   REMARKS
LAKE CHARLES   CLEAR     78  76  93 SE7       30.06F
LAFAYETTE      CLEAR     79  76  90 CALM      30.09F
PATTERSON      CLEAR     79  75  89 SE5       30.11F
SALT POINT       N/A     83  76  79 VRB3      30.08F
NEW IBERIA     NOT AVBL
CHENAULT AIRPK CLEAR     77  76  97 SE8       30.07F

$$

LAZ027-028-080800-
CENTRAL LOUISIANA

CITY           SKY/WX    TMP DP  RH WIND       PRES   REMARKS
FORT POLK      PTCLDY    78  75  91 SE8       30.05F
ALEXANDRIA INT CLEAR     76  74  93 SE6       30.05F
ALEXANDRIA     CLEAR     78  74  87 S3        30.08F

$$

LAZ001-002-080800-
NORTHWEST LOUISIANA

CITY           SKY/WX    TMP DP  RH WIND       PRES   REMARKS
SHREVEPORT     MOCLDY    79  74  84 S9        30.01F
BARKSDALE AFB  MOCLDY    78  74  86 S8        30.02F
DTN SHREVEPORT MOCLDY    79  73  82 S9        30.02F

$$

LAZ014-016-080800-
NORTHEAST LOUISIANA

CITY           SKY/WX    TMP DP  RH WIND       PRES   REMARKS
MONROE         CLEAR     76  74  93 S5        30.07F
TALLULAH       CLEAR     74  70  87 S6        30.08F

$$



USA.gov is the U.S. government's official web portal to all federal, state and local government web resources and services.